Miscellaneous Local Product
Issued by NWS North Platte, NE

Home | Current Version | Previous Version | Text Only | Print | Product List | Glossary On
Versions: 1 2 3 4 5 6 7 8 9 10 11 12 13 14 15 16 17 18 19 20 21 22 23 24 25 26 27 28 29 30 31 32 33 34 35 36 37 38 39 40 41 42 43 44 45 46 47 48 49 50
000
AXUS43 KLBF 242210
MISLBF


WESTERN AND NORTH CENTRAL NEBRASKA HOURLY WEATHER ROUNDUP
NATIONAL WEATHER SERVICE NORTH PLATTE NE
500 PM CDT SUN MAY 24 2015

***STATIONS NOT REPORTING VARIABLES SUCH AS SKY/WEATHER OR
PRESSURE ARE PROVIDED BY THE NEBRASKA DEPARTMENT OF
ROADS...RAWS...AND APRS NETWORKS...AND ARE NOT UNDER
NATIONAL WEATHER SERVICE QUALITY CONTROL***

...OBSERVATIONS IN AND NEAR THE EASTERN PANHANDLE OF NEBRASKA...

CITY           SKY/WX    TMP DP  RH WIND       PRES   REMARKS
PINE RIDGE     PTSUNNY   64  55  72 N15       29.81F
CHADRON        PTSUNNY   66  56  70 NE16G22   29.80F
ALLIANCE       MOSUNNY   69  50  50 SE12      29.78F
SIDNEY           N/A     64  49  57 E5        29.81F
WHITECLAY        N/A     65  54  67 N8          N/A
BIG SPRINGS      N/A     70  53  55 E7          N/A
$$

...OBSERVATIONS IN NORTH CENTRAL NEBRASKA...

CITY           SKY/WX    TMP DP  RH WIND       PRES   REMARKS
VALENTINE      PTSUNNY   64  57  78 NE13      29.82S
THEDFORD       PTSUNNY   69  57  64 E8        29.81F
AINSWORTH      CLOUDY    64  59  83 E7        29.82F
O`NEILL        CLOUDY    63  60  90 N3        29.83S
ORD            CLOUDY    66  56  70 CALM      29.80F
BROKEN BOW     CLOUDY    68  59  73 VRB7      29.81F
BROWNLEE         N/A     70  54  56 E12         N/A
VALENTINE NWR    N/A     63  58  83 E5          N/A
SPRINGVIEW       N/A     63  58  83 CALM        N/A
HALSEY           N/A     67  56  67 SE6         N/A
BREWSTER         N/A     71  61  70 E7          N/A
ROSE             N/A     66  66  99 E5          N/A
NEWPORT          N/A     62  61  94 NE7         N/A
SARGENT          N/A     66  59  79 CALM        N/A
COMSTOCK         N/A     72  64  73 CALM        N/A
EWING            N/A     62  60  92 CALM        N/A
$$

...OBSERVATIONS IN SOUTHWEST NEBRASKA AND FAR NORTHEAST COLORADO...

CITY           SKY/WX    TMP DP  RH WIND       PRES   REMARKS
WRAY           FAIR      69  50  50 E13       29.76F
IMPERIAL       MOSUNNY   71  51  49 SE8       29.76F
OGALLALA       PTSUNNY   71  52  51 NE7       29.77F
NORTH PLATTE   MOSUNNY   69  56  62 E10       29.79F
MCCOOK         PTSUNNY   70  57  63 E13       29.78F
LEXINGTON      CLOUDY    65  60  83 S3        29.81F
PAXTON           N/A     71  58  63 E12         N/A
GOTHENBURG       N/A     66  55  67 E7          N/A
CALLAWAY         N/A     66  61  85 SE10        N/A
$$

...NORTH PLATTE AREA...

CITY           SKY/WX    TMP DP  RH WIND       PRES   REMARKS
AIRPORT        MOSUNNY   69  56  62 E10       29.79F
DOWNTOWN         N/A     70  58  66 E6          N/A
$$

...SOME WEATHER OBSERVATIONS FROM AROUND THE REGION...

CITY           SKY/WX    TMP DP  RH WIND       PRES   REMARKS
DENVER         CLOUDY    56  41  57 SE6       29.86S
LARAMIE        CLOUDY    50  38  63 N21       29.89R
CHEYENNE       LGT RAIN  48  40  73 NW12      29.88S
SCOTTSBLUFF    MOSUNNY   68  46  45 VRB3      29.79F
RAPID CITY     CLOUDY    56  54  93 NE13      29.87F
PIERRE         CLOUDY    61  57  87 E14       29.84F
WINNER         CLOUDY    61  57  87 E9        29.83F
SIOUX FALLS    CLOUDY    62  60  93 NE8       29.81F
OMAHA          CLOUDY    69  61  75 SW8       29.79F
GRAND ISLAND   CLOUDY    66  58  75 SW6       29.82F
KANSAS CITY    LGT RAIN  69  65  86 S7        29.85F
WICHITA        CLOUDY    67  61  81 S9        29.84F
HAYS           CLOUDY    66  55  68 S7        29.82S
LIBERAL        MOSUNNY   73  57  56 SE14      29.78F
GOODLAND       MOSUNNY   70  54  56 SE14      29.77F
$$



USA.gov is the U.S. government's official web portal to all federal, state and local government web resources and services.